FORMOSAT-5 (42920 NORAD) Tracking and Keplerian Element Data

This shows tracking and keplerian element data for the satellite.

Feedback or suggestion? Click here.




ElementValue
Catalog42920
NameFORMOSAT-5
Epoch Orbit35952
Epoch Day160.22880266
Epoch Year2024
RAAN238.082
Inclination98.291
Eccentricity0.0010353
Argument of Perigee190.7949
Mean Anonmoly169.3025
Mean Motion14.50969673
Decay Rate5.55E-06
L11 42920U 17049A 24160.22880266 .00000555 00000+0 15163-3 0 9998
L22 42920 98.2910 238.0820 0010353 190.7949 169.3025 14.50969673359522



Live tracking and technical data element details for FORMOSAT-5 (NORAD 42920). FORMOSAT-5 can be tracked NOW for your location showing map with azimuth and elevation plus other details from your city location.







IsCatalogInMostPopularTable: catalog: 42920, numindb: 676
Update: records affected: 1



GetName: 42920 FORMOSAT-5

Hit Count: updated at: Mon, 17 Jun 2024 23:56:43 GMT